Regional Weather Roundup
Issued by NWS Charleston, SC

Current Version | Previous Version | Text Only | Print | Product List | Glossary Off
Versions: 1 2 3 4 5 6 7 8 9 10 11 12 13 14 15 16 17 18 19 20 21 22 23 24 25 26 27 28 29 30 31 32 33 34 35 36 37 38 39 40 41 42 43 44 45 46 47 48 49 50
000 ASUS42 KCHS 280428 RWRCHS REGIONAL WEATHER ROUNDUP NATIONAL WEATHER SERVICE CHARLESTON SC 1200 AM EDT SUN AUG 28 2016 NOTE: "FAIR" INDICATES FEW OR NO CLOUDS BELOW 12,000 FEET WITH NO SIGNIFICANT WEATHER AND/OR OBSTRUCTIONS TO VISIBILITY. NOT ALL STATIONS ARE QUALITY CONTROLLED. USE DATA WITH CAUTION... ESPECIALLY DEWPOINT OBSERVATIONS. SCZ027-030-031-034>040-042>050-280500- ...SOUTHEAST SOUTH CAROLINA... CITY SKY/WX TMP DP RH WIND PRES REMARKS N CHARLESTON CLEAR 77 72 84 NE5 30.09F WATERFRONT PRK N/A 82 76 82 VRB3 30.07S MOUNT PLEASANT FAIR 75 73 94 CALM 30.10S JOHNS ISLAND FAIR 77 73 88 CALM 30.10S PINOPOLIS N/A 79 73 83 CALM 30.04S MONCKS CORNER FAIR 72 70 94 CALM 30.11S SUMMERVILLE FAIR 72 72 100 CALM 30.11S BEAUFORT MCAS CLEAR 79 74 84 NE5 30.09S BEAUFORT ARPT FAIR 79 75 89 NE5 30.08F HILTON HEAD IS PTCLDY 82 75 78 VRB6G14 30.09S WALTERBORO CLEAR 75 75 100 CALM 30.11S ALLENDALE FAIR 75 72 88 CALM 30.10S ...SOUTHERN MIDLANDS AND PEE DEE... CITY SKY/WX TMP DP RH WIND PRES REMARKS GEORGETOWN FAIR 72 70 94 CALM 30.12R KINGSTREE CLOUDY 75 70 83 CALM 30.13R ORANGEBURG CLEAR 78 68 71 CALM 30.12R BARNWELL NOT AVBL AIKEN FAIR 79 68 69 CALM 30.16R MANNING FAIR 73 70 88 CALM 30.12R COLUMBIA MOCLDY 83 71 67 SE5 30.11R SUMTER MOCLDY 80 70 72 E2 30.10R FLORENCE CLOUDY 80 73 79 E5 30.13S MYRTLE BEACH MOCLDY 82 68 61 SE5 30.14R N MYRTLE BEACH MOCLDY 78 74 87 N3 30.11R $$ GAZ063-065-086>088-099>101-113>116-118-119-134>141-150-280500- ...SOUTHEAST GEORGIA... CITY SKY/WX TMP DP RH WIND PRES REMARKS SAVANNAH ARPT CLEAR 78 73 84 NE6 30.08S HUNTER AAF CLEAR 79 78 98 NE5 30.05F FORT STEWART CLEAR 77 73 87 NE1 30.05F STATESBORO CLEAR 79 75 87 SE3 30.09S SYLVANIA NOT AVBL CLAXTON FAIR 74 74 100 CALM 30.09S ...CSRA...CENTRAL AND FAR SOUTHEAST GEORGIA... CITY SKY/WX TMP DP RH WIND PRES REMARKS THOMSON CLEAR 78 73 86 MISG 30.16S AUGUSTA-BUSH CLEAR 77 69 76 S5 30.10R AUGUSTA-DANIEL CLEAR 83 68 60 S6 30.12S SWAINSBORO FAIR 77 70 78 CALM 30.11S VIDALIA CLEAR 79 75 89 E5 30.10R EASTMAN FAIR 79 63 57 SE3 30.10F HAZLEHURST FAIR 80 76 87 CALM 30.07S ALMA CLEAR 76 73 91 CALM 30.07S WAYCROSS N/A 80 78 95 E5 30.07R JESUP FAIR 77 77 100 CALM 30.08R BAXLEY FAIR 77 77 100 E5 30.08R BRUNSWICK CLEAR 77 77 100 NE7 30.06S SAINT SIMONS MOCLDY 82 76 81 E12 30.05S $$ SCZ027-028-034-036>038-045-046-048>050-GAZ119-141-280500- ...LAKE AND SUPPLEMENTAL COASTAL OBSERVATIONS... STATION/POSITION TIME TEMP WIND PRES WAVE SWELL AIR SEA DIR/SP/G HT/PER HT/PER/DIR (UTC) (F) (DEG/KT/KT) (MB) (FT/S) (FT/S/D) WINYAH BAY 0345 81 90/ 2 1019.0S LAKE MURRAY 0300 84 CALM / 3 1019.0S ACE BASIN NERRS 0300 79 50/ 2 1019.0S FORT PULASKI 0400 84 86 80/ 12/ 14 1018.8F SAPELO ISLAND 0400 82 70/ 5 1018.0S $$ ANZ835-935-AMZ111-154-330-350-352-354-370-450-454-472-280500- ...C-MAN AND BUOY OBSERVATIONS... STATION/POSITION TIME TEMP WIND PRES WAVE SWELL AIR SEA DIR/SP/G HT/PER HT/PER/DIR (UTC) (F) (DEG/KT/KT) (MB) (FT/S) (FT/S/D) BUOY 41004 0350 83 84 80/ 10/ 12 1018.3F 4/ 9 3/140/ 9 BUOY 41008 0250 84 85 80/ 12/ 16 1017.8 4/ 9 3/110/ 9 FOLLY BEACH CMAN 0400 83 90/ 10/ 11 1019.3S CAPERS NEARSHORE 0308 83 85 100/ 10/ 12 1019.0S FRIPP NEARSHORE 0408 83 86 90/ 14/ 17 1018.1S STATION/POSITION TIME TEMP WIND PRES WAVE SWELL AIR SEA DIR/SP/G HT/PER HT/PER/DIR (UTC) (F) (DEG/KT/KT) (MB) (FT/S) (FT/S/D) 5E ST. MARYS GA 0401 85 N/A 4/ 9 FRYING PAN BUOY 0400 83 84 90/ 10/ 12 1019.0F BUOY 41025 0350 80 85 270/ 2/ 4 1019.7F 3/ 9 3/120/ 9 CAPE LOOKOUT NC 0400 81 20/ 7/ 9 1019.3F BUOY 41002 0350 81 84 70/ 12/ 17 1017.7R 4/ 8 3/100/ 8 BUOY 41010 NOT AVBL ST AUGUSTINE FL 0400 82 84 50/ 9/ 10 1017.3F $$

USA.gov is the U.S. government's official web portal to all federal, state and local government web resources and services.